Crane Lake, MN

8:51 AM CDT on May 25, 2017 (GMT -0500)
Crane Lake

Weather History for KCDD - December, 2012

Change the Weather History Date:

Thursday, December 27, 2012

  Actual Average Record
Temperature  
Mean Temperature 0 °F -  
Max Temperature 15 °F 15 °F 39 °F (2003)
Min Temperature -14 °F 0 °F -25 °F (2000)
Degree Days  
Heating Degree Days 64    
Moisture  
Dew Point -3 °F    
Average Humidity 87    
Maximum Humidity 92    
Minimum Humidity 73    
Precipitation  
Precipitation 0.00 in - - ()
Sea Level Pressure  
Sea Level Pressure 30.25 in    
Wind  
Wind Speed 0 mph (North)    
Max Wind Speed 0 mph    
Max Gust Speed -    
Visibility 9 miles    
Events Snow    
Averages and records for this station are not official NWS values.
T = Trace of Precipitation, MM = Missing Value Source: NWS Daily Summary

Daily Weather History Graph

Daily Weather History Graph

Search for Another Location

Airport or City:

Trip Planner

Search our weather history database for the weather conditions in past years. The results will help you decide how hot, cold, wet, or windy it might be!

Date:

Astronomy

Dec. 27, 2012 Rise Set
Actual Time 8:00 AM CST 4:22 PM CST
Civil Twilight 7:23 AM CST 4:58 PM CST
Nautical Twilight 6:43 AM CST 5:38 PM CST
Astronomical Twilight 6:05 AM CST 6:16 PM CST
Moon 4:08 PM CST (12/27) 7:09 AM CST (12/27)
Length of Visible Light 9h 35m
Length of Day
8h 21m
Full, 100% of the Moon is Illuminated
Dec 27
Full
Dec 28
Full
Jan 4
Last Quarter
Jan 11
New
Jan 18
First Quarter

Hourly Weather History & Observations

Time (CST) Temp. Dew Point Humidity Pressure Visibility Wind Dir Wind Speed Gust Speed Precip Events Conditions
12:13 AM 10.4 °F 3.2 °F 73% 30.21 in 3.0 mi Calm Calm - N/A Snow Light Snow
12:23 AM -13.0 °F -16.6 °F 84% 30.29 in 10.0 mi Calm Calm - N/A   Scattered Clouds
12:43 AM -13.0 °F -16.6 °F 84% 30.29 in 10.0 mi Calm Calm - N/A   Mostly Cloudy
1:03 AM -11.2 °F -14.8 °F 84% 30.29 in 10.0 mi Calm Calm - N/A   Overcast
1:22 AM -11.2 °F -14.8 °F 84% 30.29 in 10.0 mi Calm Calm - N/A   Overcast
1:42 AM -11.2 °F -14.8 °F 84% 30.29 in 10.0 mi Calm Calm - N/A   Scattered Clouds
2:03 AM -11.2 °F -16.6 °F 77% 30.30 in 10.0 mi Calm Calm - N/A   Clear
2:24 AM -11.2 °F -16.6 °F 77% 30.30 in 10.0 mi Calm Calm - N/A   Clear
2:42 AM -13.0 °F -16.6 °F 84% 30.30 in 10.0 mi Calm Calm - N/A   Scattered Clouds
3:10 AM -13.0 °F -16.6 °F 84% 30.30 in 10.0 mi Calm Calm - N/A   Mostly Cloudy
3:22 AM -13.0 °F -16.6 °F 84% 30.30 in 10.0 mi Calm Calm - N/A   Overcast
3:42 AM -13.0 °F -16.6 °F 84% 30.30 in 10.0 mi Calm Calm - N/A   Scattered Clouds
4:10 AM -13.0 °F -16.6 °F 84% 30.30 in 10.0 mi Calm Calm - N/A   Clear
4:22 AM -13.0 °F -16.6 °F 84% 30.30 in 10.0 mi Calm Calm - N/A   Clear
4:49 AM -14.8 °F -18.4 °F 84% 30.30 in 10.0 mi Calm Calm - N/A   Scattered Clouds
5:02 AM -14.8 °F -18.4 °F 84% 30.29 in 10.0 mi Calm Calm - N/A   Scattered Clouds
5:23 AM -14.8 °F -16.6 °F 92% 30.29 in 10.0 mi Calm Calm - N/A   Scattered Clouds
5:42 AM -14.8 °F -18.4 °F 84% 30.30 in 10.0 mi Calm Calm - N/A   Clear
6:03 AM -14.8 °F -18.4 °F 84% 30.29 in 10.0 mi Calm Calm - N/A   Clear
6:22 AM -14.8 °F -18.4 °F 84% 30.29 in 10.0 mi Calm Calm - N/A   Clear
6:42 AM -14.8 °F -18.4 °F 84% 30.29 in 10.0 mi Calm Calm - N/A   Clear
7:22 AM -14.8 °F -18.4 °F 84% 30.29 in 10.0 mi Calm Calm - N/A   Clear
7:42 AM -14.8 °F -18.4 °F 84% 30.29 in 10.0 mi Calm Calm - N/A   Clear
8:02 AM -14.8 °F -18.4 °F 84% 30.29 in 10.0 mi Calm Calm - N/A   Clear
8:42 AM -13.0 °F -16.6 °F 84% 30.30 in 10.0 mi Calm Calm - N/A   Clear
9:03 AM -11.2 °F -14.8 °F 84% 30.30 in 10.0 mi Calm Calm - N/A   Clear
9:22 AM -9.4 °F -11.2 °F 92% 30.30 in 10.0 mi Calm Calm - N/A   Clear
9:42 AM -7.6 °F -9.4 °F 92% 30.30 in 10.0 mi Calm Calm - N/A   Clear
10:02 AM -5.8 °F - N/A% 30.29 in 10.0 mi Calm Calm - N/A   Unknown
10:22 AM -5.8 °F -7.6 °F 92% 30.29 in 10.0 mi Calm Calm - N/A   Clear
10:43 AM -2.2 °F -5.8 °F 85% 30.28 in 10.0 mi Calm Calm - N/A   Clear
11:02 AM -0.4 °F -2.2 °F 92% 30.27 in 10.0 mi Calm Calm - N/A   Clear
11:22 AM 3.2 °F 1.4 °F 92% 30.26 in 10.0 mi Calm Calm - N/A   Clear
11:43 AM 8.6 °F 5.0 °F 85% 30.26 in 10.0 mi Calm Calm - N/A   Clear
12:02 PM 8.6 °F 3.2 °F 79% 30.25 in 10.0 mi Calm Calm - N/A   Clear
12:22 PM 6.8 °F 3.2 °F 85% 30.25 in 10.0 mi Calm Calm - N/A   Clear
12:42 PM 8.6 °F 5.0 °F 85% 30.24 in 10.0 mi Calm Calm - N/A   Mostly Cloudy
1:02 PM 8.6 °F 6.8 °F 92% 30.23 in 10.0 mi Calm Calm - N/A   Overcast
1:22 PM 8.6 °F 6.8 °F 92% 30.23 in 10.0 mi Calm Calm - N/A   Overcast
1:43 PM 10.4 °F 6.8 °F 85% 30.22 in 10.0 mi Calm Calm - N/A   Overcast
2:02 PM 10.4 °F 8.6 °F 92% 30.22 in 10.0 mi Calm Calm - N/A   Overcast
2:22 PM 12.2 °F 10.4 °F 92% 30.22 in 10.0 mi Calm Calm - N/A   Overcast
2:42 PM 15.8 °F 12.2 °F 86% 30.22 in 10.0 mi Calm Calm - N/A   Overcast
3:02 PM 12.2 °F 10.4 °F 92% 30.22 in 10.0 mi Calm Calm - N/A   Overcast
3:22 PM 10.4 °F 8.6 °F 92% 30.22 in 10.0 mi Calm Calm - N/A   Overcast
3:43 PM 10.4 °F 8.6 °F 92% 30.22 in 10.0 mi Calm Calm - N/A   Overcast
4:02 PM 10.4 °F 8.6 °F 92% 30.22 in 10.0 mi Calm Calm - N/A   Overcast
4:22 PM 8.6 °F 6.8 °F 92% 30.22 in 10.0 mi Calm Calm - N/A   Overcast
4:42 PM 8.6 °F 6.8 °F 92% 30.22 in 10.0 mi Calm Calm - N/A   Overcast
5:02 PM 8.6 °F 6.8 °F 92% 30.22 in 7.0 mi Calm Calm - N/A   Overcast
5:23 PM 8.6 °F 6.8 °F 92% 30.22 in 10.0 mi Calm Calm - N/A Snow Light Snow
5:42 PM 8.6 °F 6.8 °F 92% 30.22 in 4.0 mi Calm Calm - N/A Snow Light Snow
6:02 PM 8.6 °F 6.8 °F 92% 30.22 in 4.0 mi Calm Calm - N/A Snow Light Snow
6:22 PM 8.6 °F 6.8 °F 92% 30.21 in 5.0 mi Calm Calm - N/A Snow Light Snow
6:42 PM 8.6 °F 6.8 °F 92% 30.21 in 10.0 mi Calm Calm - N/A   Overcast
7:02 PM 8.6 °F 6.8 °F 92% 30.21 in 10.0 mi Calm Calm - N/A   Overcast
7:22 PM 8.6 °F 6.8 °F 92% 30.21 in 7.0 mi Calm Calm - N/A Snow Light Snow
7:42 PM 8.6 °F 6.8 °F 92% 30.21 in 10.0 mi Calm Calm - N/A   Overcast
8:02 PM 6.8 °F 5.0 °F 92% 30.21 in 10.0 mi Calm Calm - N/A   Overcast
8:23 PM 6.8 °F 3.2 °F 85% 30.20 in 7.0 mi Calm Calm - N/A Snow Light Snow
8:42 PM 5.0 °F 3.2 °F 92% 30.20 in 10.0 mi Calm Calm - N/A   Overcast
9:02 PM 5.0 °F 3.2 °F 92% 30.20 in 10.0 mi Calm Calm - N/A Snow Light Snow
9:22 PM 6.8 °F 3.2 °F 85% 30.19 in 10.0 mi Calm Calm - N/A Snow Light Snow
9:42 PM 6.8 °F 3.2 °F 85% 30.18 in 7.0 mi Calm Calm - N/A Snow Light Snow
10:02 PM 6.8 °F 3.2 °F 85% 30.18 in 5.0 mi Calm Calm - N/A Snow Light Snow
10:22 PM 6.8 °F 3.2 °F 85% 30.19 in 3.0 mi Calm Calm - N/A Snow Light Snow
10:42 PM 6.8 °F 3.2 °F 85% 30.18 in 2.5 mi Calm Calm - N/A Snow Light Snow
11:02 PM 6.8 °F 3.2 °F 85% 30.18 in 3.0 mi Calm Calm - N/A Snow Light Snow
11:22 PM 6.8 °F 3.2 °F 85% 30.17 in 4.0 mi Calm Calm - N/A Snow Light Snow
11:42 PM 6.8 °F 3.2 °F 85% 30.17 in 3.0 mi Calm Calm - N/A Snow Light Snow